Terminal Aerodrome Forecast
Issued by NWS St Louis, MO

Home | Current Version | Previous Version | Text Only | Print | Product List | Glossary On
Versions: 1 2 3 4 5 6 7 8 9 10 11 12 13 14 15 16 17 18 19 20 21 22 23 24 25 26 27 28 29 30 31 32 33 34 35 36 37 38 39
000
FTUS43 KLSX 011700
TAFSTL
TAF
KSTL 011731Z 0118/0224 24012G20KT P6SM SCT040 BKN200
     FM020100 23012KT 4SM TSRA BR OVC035CB
      TEMPO 0203/0207 2SM +TSRA OVC015CB
     FM020700 23007KT 5SM -SHRA VCTS BKN020CB
     FM021100 30007KT P6SM BKN035=

USA.gov is the U.S. government's official web portal to all federal, state and local government web resources and services.